Location: Unspecified
(43.4680°N, 87.1740°E)
Time: 20:12:33
(UTC+00:00)

SL-08 R/B - Pass Details

Date: 17 April 2021
Orbit: 673 x 740 km, 98.5° (Epoch: 12 May)

Event Time Altitude Azimuth Distance (km) Brightness Sun altitude
Exits shadow 22:16:42 - 202° (SSW) 2,310 5.5 -12.2°
Reaches altitude 10° 22:16:56 10° 204° (SSW) 2,232 5.4 -12.2°
Maximum altitude 22:21:12 29° 264° (W) 1,313 4.2 -11.5°
Drops below altitude 10° 22:25:27 10° 325° (NW) 2,219 5.8 -10.8°
Sets 22:27:59 0° 336° (NNW) 3,133 6.7 -10.4°
